GEFSCGP_prec_meanprecacc_264.txt.gz
Total_Precipitation_Accumulation
0.50 0.83 1.13 1.01 1.03 1.09 0.92 0.93 1.00 0.97 0.83 0.94 1.02 0.98 1.05 1.04 1.00 0.84 0.74 0.66 0.67 0.65 0.66 0.62 0.57 0.61 0.61 0.57 0.55 0.62 0.75 0.89 1.03 1.15 1.26 1.50 1.66 1.75 1.75 1.73 1.78 1.70 1.49 1.56
0.71 0.81 0.65 0.64 0.71 0.82 0.85 0.90 0.94 0.87 0.72 0.82 0.88 0.92 0.96 0.91 0.83 0.67 0.61 0.57 0.52 0.51 0.54 0.52 0.43 0.43 0.46 0.48 0.51 0.57 0.71 0.93 1.15 1.34 1.49 1.66 1.99 2.14 2.12 2.17 2.09 2.02 1.90 1.91
0.66 0.60 0.48 0.56 0.66 0.76 0.78 0.78 0.81 0.81 0.83 0.82 0.84 0.98 1.00 0.95 0.79 0.61 0.51 0.46 0.43 0.39 0.42 0.44 0.39 0.34 0.31 0.34 0.40 0.49 0.60 0.82 1.13 1.43 1.64 1.82 2.04 2.29 2.38 2.26 2.22 2.22 2.27 2.31
0.58 0.48 0.45 0.53 0.57 0.65 0.87 0.56 0.54 0.60 0.76 0.98 0.82 1.13 1.00 0.91 0.81 0.65 0.55 0.48 0.43 0.41 0.40 0.38 0.36 0.36 0.32 0.34 0.38 0.47 0.59 0.74 0.96 1.22 1.54 1.79 2.06 2.36 2.40 2.34 2.32 2.34 2.40 2.46
0.57 0.50 0.50 0.58 0.50 0.52 0.66 0.43 0.45 0.57 0.62 0.69 0.62 0.88 0.92 0.75 0.82 0.72 0.63 0.55 0.47 0.43 0.42 0.37 0.35 0.36 0.38 0.41 0.45 0.56 0.69 0.79 0.95 1.19 1.52 1.83 2.03 2.22 2.39 2.38 2.27 2.19 2.24 2.22
0.51 0.44 0.44 0.46 0.38 0.40 0.48 0.49 0.51 0.56 0.64 0.77 0.49 0.66 0.86 0.77 0.73 0.69 0.63 0.58 0.49 0.40 0.42 0.44 0.47 0.47 0.46 0.51 0.60 0.73 0.82 0.98 1.10 1.19 1.31 1.46 1.67 1.96 2.12 2.25 2.24 2.22 2.20 2.08
0.50 0.42 0.32 0.30 0.42 0.43 0.46 0.72 0.98 0.97 0.95 0.82 0.40 0.56 0.75 0.63 0.54 0.56 0.55 0.55 0.52 0.49 0.53 0.60 0.67 0.64 0.61 0.63 0.77 0.87 0.96 1.00 1.05 1.02 1.04 1.16 1.32 1.56 1.70 1.82 1.99 2.05 2.09 2.04
0.52 0.48 0.33 0.26 0.33 0.47 0.47 0.62 0.99 1.09 0.93 0.75 0.58 0.76 0.77 0.54 0.46 0.48 0.50 0.49 0.49 0.56 0.64 0.79 0.89 0.90 0.85 0.85 0.89 0.89 0.94 0.88 0.88 0.91 0.94 1.00 1.06 1.21 1.33 1.41 1.57 1.69 1.69 1.67
0.50 0.44 0.23 0.20 0.19 0.29 0.43 0.38 0.41 0.62 0.63 0.72 0.68 0.78 0.73 0.49 0.42 0.45 0.50 0.51 0.53 0.66 0.79 0.97 1.13 1.17 1.08 1.01 0.95 0.95 0.99 0.93 0.85 0.88 0.96 0.98 1.01 1.01 1.03 1.09 1.09 1.17 1.25 1.27
0.39 0.42 0.26 0.18 0.19 0.22 0.29 0.32 0.41 0.70 0.94 0.99 0.81 0.85 0.90 0.66 0.51 0.52 0.61 0.71 0.81 0.95 1.00 1.14 1.26 1.26 1.22 1.24 1.19 1.03 1.00 1.02 0.95 1.02 1.04 0.97 0.93 0.89 0.90 0.95 0.99 1.01 1.09 1.17
0.34 0.44 0.33 0.24 0.26 0.27 0.27 0.33 0.49 0.74 0.82 1.13 1.28 1.23 0.87 0.69 0.66 0.66 0.74 1.02 1.10 1.16 1.22 1.24 1.31 1.30 1.19 1.17 1.14 1.11 1.06 1.04 1.05 1.06 1.08 0.96 0.94 0.93 0.92 0.90 0.94 1.02 1.09 1.18
0.39 0.52 0.43 0.26 0.23 0.26 0.39 0.51 0.67 1.07 1.05 0.98 1.32 1.41 0.91 0.75 0.77 0.78 0.80 0.85 0.92 1.13 1.21 1.20 1.27 1.21 1.09 1.06 0.95 0.99 1.06 1.07 1.14 1.14 1.06 0.99 1.03 1.04 1.06 1.02 0.96 0.99 1.04 1.03
0.51 0.68 0.70 0.54 0.51 0.47 0.52 0.59 0.73 0.94 1.14 1.16 1.30 1.33 0.95 0.72 0.71 0.77 0.83 0.82 0.87 0.98 0.99 0.93 0.97 1.04 1.00 0.98 0.91 0.98 1.05 1.11 1.12 1.16 1.15 1.04 0.95 0.97 1.00 0.99 0.92 0.87 0.90 0.93
0.49 0.65 0.78 0.80 0.71 0.62 0.56 0.50 0.56 0.82 1.13 1.15 1.19 1.12 0.85 0.72 0.69 0.72 0.76 0.81 0.79 0.77 0.77 0.70 0.68 0.75 0.77 0.79 0.86 0.93 1.06 1.21 1.23 1.22 1.18 1.11 1.04 1.06 0.98 0.89 0.86 0.84 0.79 0.75
0.43 0.43 0.38 0.32 0.30 0.35 0.41 0.43 0.52 0.67 0.84 1.09 0.97 0.76 0.64 0.63 0.59 0.60 0.67 0.60 0.56 0.55 0.55 0.56 0.55 0.55 0.56 0.60 0.68 0.76 0.88 1.08 1.20 1.29 1.28 1.18 1.11 1.01 0.93 0.85 0.76 0.77 0.68 0.65
0.45 0.39 0.24 0.18 0.19 0.24 0.34 0.47 0.60 0.67 0.73 0.75 0.66 0.62 0.48 0.45 0.41 0.41 0.47 0.48 0.48 0.44 0.39 0.39 0.43 0.44 0.49 0.52 0.60 0.61 0.72 0.89 1.01 1.09 1.13 1.19 1.15 0.98 0.87 0.77 0.69 0.66 0.65 0.64
0.32 0.32 0.28 0.21 0.17 0.28 0.49 0.58 0.65 0.65 0.59 0.51 0.49 0.43 0.32 0.29 0.25 0.25 0.31 0.36 0.41 0.40 0.34 0.32 0.33 0.36 0.43 0.52 0.56 0.60 0.71 0.84 0.87 0.93 0.96 1.01 1.01 0.86 0.79 0.68 0.61 0.59 0.59 0.61
0.31 0.35 0.42 0.31 0.26 0.50 0.68 0.55 0.50 0.56 0.45 0.31 0.28 0.28 0.25 0.21 0.18 0.16 0.17 0.19 0.22 0.25 0.26 0.30 0.29 0.29 0.32 0.40 0.51 0.65 0.69 0.70 0.71 0.77 0.78 0.79 0.81 0.76 0.69 0.59 0.56 0.57 0.59 0.63
0.31 0.41 0.52 0.47 0.44 0.55 0.61 0.42 0.40 0.48 0.46 0.26 0.19 0.18 0.15 0.14 0.13 0.11 0.11 0.13 0.14 0.14 0.17 0.21 0.21 0.21 0.22 0.25 0.28 0.34 0.40 0.44 0.45 0.55 0.63 0.67 0.69 0.67 0.62 0.56 0.62 0.67 0.65 0.66
0.43 0.51 0.58 0.55 0.63 0.70 0.48 0.21 0.20 0.35 0.55 0.24 0.14 0.12 0.10 0.11 0.14 0.12 0.12 0.13 0.11 0.10 0.10 0.13 0.17 0.16 0.15 0.16 0.17 0.20 0.24 0.28 0.31 0.37 0.45 0.54 0.60 0.63 0.65 0.75 0.82 0.84 0.79 0.71
0.36 0.44 0.55 0.60 0.80 0.75 0.44 0.20 0.22 0.42 0.57 0.29 0.14 0.10 0.11 0.12 0.12 0.10 0.11 0.11 0.10 0.09 0.08 0.10 0.12 0.13 0.14 0.15 0.14 0.17 0.20 0.21 0.23 0.23 0.29 0.41 0.58 0.67 0.76 0.88 0.91 0.88 0.81 0.69
0.38 0.50 0.62 0.75 0.97 0.99 0.50 0.28 0.35 0.34 0.23 0.18 0.12 0.11 0.10 0.10 0.09 0.09 0.09 0.08 0.09 0.10 0.08 0.08 0.09 0.10 0.13 0.15 0.13 0.15 0.22 0.22 0.26 0.26 0.27 0.35 0.47 0.61 0.77 0.88 0.86 0.84 0.84 0.76
0.32 0.58 0.83 0.83 0.83 0.64 0.38 0.28 0.22 0.16 0.16 0.10 0.09 0.10 0.10 0.09 0.09 0.09 0.10 0.09 0.08 0.08 0.08 0.09 0.10 0.10 0.11 0.12 0.14 0.15 0.18 0.22 0.24 0.27 0.23 0.25 0.33 0.48 0.66 0.76 0.77 0.78 0.79 0.76
0.19 0.28 0.44 0.42 0.31 0.24 0.20 0.18 0.13 0.10 0.10 0.07 0.06 0.06 0.10 0.12 0.11 0.09 0.09 0.09 0.09 0.09 0.08 0.08 0.09 0.10 0.10 0.12 0.14 0.17 0.20 0.20 0.21 0.23 0.24 0.22 0.23 0.28 0.37 0.45 0.52 0.60 0.64 0.65
0.18 0.23 0.33 0.32 0.19 0.14 0.14 0.14 0.11 0.09 0.09 0.08 0.07 0.06 0.07 0.11 0.11 0.08 0.09 0.08 0.09 0.09 0.09 0.08 0.10 0.12 0.11 0.13 0.12 0.15 0.19 0.22 0.22 0.23 0.24 0.25 0.26 0.29 0.31 0.34 0.37 0.41 0.44 0.54
0.12 0.19 0.28 0.30 0.20 0.15 0.13 0.13 0.14 0.12 0.10 0.09 0.08 0.10 0.11 0.12 0.12 0.11 0.09 0.08 0.08 0.09 0.10 0.10 0.12 0.13 0.13 0.13 0.14 0.14 0.16 0.18 0.20 0.21 0.21 0.20 0.22 0.25 0.26 0.29 0.31 0.34 0.34 0.41

GEFSCGP_prec_meanprecacc_270.txt.gz
Total_Precipitation_Accumulation
0.51 0.85 1.15 1.02 1.05 1.10 0.93 0.95 1.02 0.99 0.84 0.95 1.04 1.00 1.06 1.05 1.02 0.86 0.76 0.68 0.68 0.67 0.68 0.64 0.59 0.63 0.62 0.58 0.56 0.62 0.75 0.90 1.04 1.16 1.28 1.51 1.67 1.76 1.75 1.74 1.80 1.71 1.50 1.57
0.72 0.84 0.67 0.65 0.72 0.83 0.86 0.92 0.97 0.90 0.74 0.84 0.90 0.93 0.97 0.92 0.85 0.69 0.62 0.59 0.54 0.52 0.56 0.54 0.45 0.43 0.46 0.49 0.52 0.57 0.71 0.94 1.15 1.35 1.51 1.68 2.00 2.16 2.15 2.19 2.11 2.04 1.91 1.92
0.67 0.61 0.49 0.57 0.67 0.77 0.80 0.79 0.83 0.83 0.85 0.85 0.85 1.00 1.02 0.96 0.80 0.63 0.53 0.48 0.45 0.40 0.44 0.45 0.40 0.35 0.32 0.35 0.42 0.50 0.61 0.83 1.14 1.43 1.65 1.83 2.06 2.31 2.41 2.29 2.24 2.24 2.29 2.32
0.59 0.49 0.46 0.56 0.59 0.66 0.89 0.57 0.55 0.61 0.78 1.00 0.83 1.15 1.01 0.93 0.82 0.66 0.57 0.50 0.45 0.42 0.41 0.39 0.37 0.37 0.33 0.35 0.41 0.50 0.61 0.75 0.97 1.23 1.54 1.80 2.07 2.37 2.42 2.36 2.34 2.37 2.44 2.48
0.57 0.50 0.51 0.59 0.52 0.53 0.68 0.44 0.46 0.58 0.63 0.70 0.63 0.89 0.93 0.76 0.84 0.74 0.65 0.56 0.48 0.45 0.44 0.39 0.36 0.36 0.39 0.42 0.46 0.58 0.70 0.80 0.96 1.21 1.54 1.84 2.03 2.22 2.40 2.40 2.29 2.21 2.28 2.25
0.52 0.44 0.45 0.47 0.40 0.42 0.50 0.50 0.52 0.57 0.65 0.78 0.50 0.67 0.87 0.78 0.75 0.72 0.65 0.60 0.50 0.42 0.44 0.45 0.48 0.48 0.47 0.51 0.61 0.73 0.83 0.98 1.11 1.20 1.32 1.47 1.67 1.96 2.12 2.25 2.25 2.23 2.23 2.11
0.51 0.43 0.33 0.31 0.44 0.45 0.50 0.76 1.01 0.99 0.97 0.83 0.41 0.58 0.78 0.64 0.56 0.58 0.57 0.57 0.54 0.51 0.54 0.61 0.68 0.65 0.62 0.64 0.78 0.88 0.96 1.01 1.06 1.03 1.05 1.17 1.33 1.56 1.71 1.83 2.00 2.06 2.09 2.07
0.53 0.48 0.34 0.27 0.35 0.49 0.49 0.65 1.03 1.12 0.96 0.77 0.60 0.80 0.82 0.57 0.49 0.50 0.52 0.50 0.51 0.58 0.65 0.80 0.90 0.92 0.86 0.86 0.89 0.90 0.94 0.89 0.89 0.92 0.95 1.02 1.08 1.23 1.35 1.43 1.58 1.70 1.69 1.68
0.51 0.45 0.24 0.21 0.20 0.31 0.44 0.41 0.43 0.65 0.66 0.76 0.73 0.83 0.78 0.51 0.44 0.47 0.52 0.53 0.55 0.68 0.80 0.97 1.15 1.18 1.09 1.02 0.96 0.96 1.01 0.95 0.87 0.90 0.98 1.00 1.03 1.03 1.04 1.10 1.10 1.18 1.26 1.27
0.41 0.43 0.27 0.19 0.20 0.23 0.30 0.34 0.43 0.73 0.98 1.04 0.88 0.92 0.96 0.70 0.53 0.54 0.62 0.74 0.83 0.97 1.01 1.15 1.28 1.28 1.24 1.26 1.21 1.05 1.03 1.05 0.98 1.05 1.07 0.99 0.95 0.91 0.93 0.98 1.01 1.02 1.10 1.18
0.35 0.46 0.34 0.25 0.28 0.29 0.28 0.34 0.50 0.76 0.85 1.16 1.33 1.29 0.91 0.71 0.69 0.68 0.75 1.03 1.11 1.17 1.23 1.25 1.33 1.31 1.21 1.20 1.17 1.15 1.10 1.07 1.08 1.09 1.10 0.97 0.95 0.96 0.96 0.94 0.97 1.04 1.11 1.21
0.40 0.52 0.44 0.26 0.23 0.27 0.39 0.52 0.69 1.10 1.09 1.02 1.40 1.47 0.93 0.77 0.79 0.81 0.81 0.85 0.93 1.14 1.22 1.22 1.29 1.23 1.11 1.09 0.99 1.02 1.09 1.09 1.17 1.18 1.09 1.01 1.04 1.06 1.09 1.04 1.00 1.03 1.07 1.06
0.51 0.69 0.71 0.54 0.52 0.48 0.52 0.60 0.74 0.95 1.16 1.20 1.36 1.37 0.96 0.73 0.72 0.78 0.84 0.83 0.89 0.99 1.00 0.94 0.99 1.06 1.02 1.00 0.94 1.02 1.09 1.14 1.16 1.19 1.19 1.07 0.97 0.99 1.02 1.01 0.94 0.90 0.92 0.95
0.49 0.65 0.78 0.80 0.72 0.63 0.57 0.50 0.57 0.83 1.14 1.16 1.20 1.13 0.85 0.72 0.70 0.72 0.77 0.82 0.80 0.78 0.78 0.72 0.70 0.77 0.79 0.81 0.88 0.95 1.09 1.24 1.26 1.25 1.20 1.13 1.06 1.08 1.00 0.92 0.89 0.87 0.82 0.77
0.43 0.44 0.39 0.33 0.31 0.35 0.42 0.43 0.53 0.68 0.85 1.09 0.98 0.77 0.65 0.63 0.59 0.61 0.67 0.60 0.56 0.55 0.56 0.57 0.56 0.57 0.58 0.62 0.70 0.77 0.89 1.10 1.23 1.31 1.30 1.21 1.14 1.05 0.97 0.87 0.79 0.80 0.70 0.67
0.46 0.40 0.24 0.19 0.19 0.24 0.35 0.47 0.61 0.67 0.74 0.76 0.66 0.62 0.48 0.46 0.41 0.42 0.48 0.48 0.48 0.44 0.39 0.40 0.45 0.47 0.51 0.54 0.61 0.62 0.73 0.90 1.03 1.11 1.14 1.21 1.18 1.01 0.90 0.80 0.71 0.69 0.67 0.65
0.33 0.33 0.28 0.21 0.17 0.28 0.49 0.58 0.65 0.65 0.60 0.52 0.50 0.44 0.32 0.29 0.26 0.26 0.31 0.36 0.42 0.41 0.35 0.34 0.34 0.38 0.46 0.54 0.57 0.61 0.72 0.85 0.89 0.95 0.97 1.02 1.03 0.88 0.81 0.70 0.63 0.62 0.62 0.63
0.31 0.35 0.42 0.32 0.27 0.50 0.69 0.56 0.50 0.56 0.46 0.32 0.30 0.29 0.26 0.21 0.18 0.16 0.17 0.19 0.23 0.26 0.27 0.32 0.30 0.30 0.34 0.41 0.52 0.65 0.70 0.71 0.72 0.78 0.79 0.80 0.82 0.78 0.71 0.61 0.58 0.59 0.62 0.66
0.31 0.42 0.53 0.48 0.45 0.55 0.62 0.43 0.41 0.49 0.47 0.27 0.21 0.19 0.16 0.15 0.14 0.12 0.12 0.13 0.14 0.14 0.18 0.22 0.23 0.23 0.24 0.27 0.29 0.35 0.41 0.45 0.48 0.57 0.64 0.68 0.70 0.68 0.63 0.58 0.65 0.69 0.67 0.67
0.43 0.51 0.59 0.56 0.64 0.71 0.48 0.21 0.21 0.36 0.56 0.25 0.14 0.12 0.11 0.12 0.14 0.13 0.12 0.13 0.12 0.10 0.10 0.14 0.18 0.17 0.16 0.17 0.18 0.21 0.26 0.30 0.34 0.40 0.46 0.55 0.61 0.64 0.66 0.77 0.84 0.85 0.81 0.74
0.36 0.44 0.55 0.61 0.81 0.75 0.44 0.20 0.22 0.42 0.57 0.29 0.14 0.11 0.13 0.13 0.13 0.11 0.11 0.12 0.11 0.09 0.08 0.10 0.13 0.14 0.15 0.16 0.16 0.18 0.22 0.22 0.25 0.24 0.31 0.43 0.60 0.68 0.77 0.90 0.93 0.90 0.83 0.72
0.38 0.51 0.62 0.75 0.97 0.99 0.50 0.29 0.35 0.34 0.23 0.18 0.12 0.11 0.11 0.11 0.11 0.11 0.10 0.09 0.09 0.10 0.09 0.09 0.10 0.11 0.14 0.16 0.15 0.16 0.24 0.25 0.29 0.28 0.29 0.37 0.50 0.64 0.79 0.90 0.89 0.87 0.87 0.79
0.33 0.59 0.84 0.83 0.83 0.65 0.39 0.28 0.23 0.17 0.17 0.11 0.10 0.11 0.12 0.10 0.10 0.10 0.10 0.09 0.08 0.09 0.08 0.09 0.10 0.11 0.12 0.13 0.16 0.17 0.20 0.24 0.26 0.29 0.25 0.27 0.36 0.50 0.68 0.77 0.79 0.80 0.80 0.77
0.20 0.28 0.44 0.43 0.32 0.24 0.21 0.18 0.14 0.10 0.11 0.08 0.07 0.07 0.11 0.13 0.13 0.10 0.10 0.10 0.10 0.10 0.08 0.08 0.10 0.11 0.12 0.13 0.16 0.19 0.23 0.24 0.24 0.26 0.27 0.25 0.25 0.31 0.40 0.48 0.54 0.62 0.67 0.67
0.18 0.23 0.33 0.32 0.19 0.14 0.15 0.15 0.12 0.10 0.09 0.08 0.07 0.07 0.08 0.11 0.12 0.09 0.10 0.09 0.09 0.10 0.10 0.09 0.11 0.13 0.13 0.14 0.15 0.17 0.21 0.24 0.25 0.26 0.28 0.29 0.30 0.33 0.35 0.37 0.41 0.45 0.48 0.58
0.12 0.19 0.28 0.30 0.20 0.15 0.13 0.13 0.14 0.12 0.10 0.09 0.09 0.10 0.11 0.12 0.13 0.12 0.10 0.10 0.09 0.10 0.11 0.12 0.14 0.15 0.15 0.15 0.16 0.16 0.18 0.20 0.22 0.24 0.24 0.24 0.25 0.29 0.30 0.32 0.36 0.39 0.40 0.46

GEFSCGP_prec_meanprecacc_276.txt.gz
Total_Precipitation_Accumulation
0.55 0.88 1.16 1.03 1.05 1.11 0.94 0.96 1.03 1.01 0.84 0.95 1.04 1.01 1.07 1.06 1.02 0.87 0.77 0.69 0.70 0.69 0.70 0.66 0.61 0.66 0.66 0.60 0.58 0.63 0.76 0.91 1.06 1.18 1.30 1.53 1.68 1.78 1.78 1.77 1.81 1.71 1.51 1.57
0.74 0.86 0.68 0.65 0.73 0.84 0.87 0.92 0.97 0.91 0.75 0.84 0.91 0.94 0.98 0.92 0.85 0.70 0.63 0.60 0.56 0.54 0.57 0.56 0.48 0.46 0.49 0.51 0.53 0.58 0.72 0.95 1.16 1.36 1.53 1.70 2.02 2.18 2.17 2.23 2.13 2.05 1.92 1.93
0.68 0.62 0.50 0.58 0.69 0.79 0.81 0.80 0.84 0.83 0.86 0.86 0.86 1.00 1.03 0.97 0.81 0.64 0.54 0.49 0.46 0.42 0.46 0.47 0.41 0.37 0.34 0.38 0.44 0.52 0.62 0.84 1.15 1.44 1.67 1.85 2.08 2.34 2.45 2.34 2.28 2.27 2.31 2.34
0.59 0.49 0.47 0.57 0.61 0.68 0.90 0.58 0.56 0.62 0.79 1.02 0.85 1.17 1.03 0.93 0.83 0.67 0.58 0.51 0.46 0.44 0.44 0.42 0.39 0.38 0.35 0.38 0.43 0.53 0.62 0.77 0.98 1.24 1.55 1.81 2.08 2.39 2.45 2.40 2.38 2.41 2.47 2.51
0.58 0.51 0.52 0.60 0.53 0.55 0.69 0.45 0.47 0.60 0.65 0.71 0.65 0.90 0.94 0.77 0.85 0.76 0.66 0.57 0.49 0.46 0.46 0.41 0.40 0.39 0.42 0.44 0.49 0.60 0.71 0.82 0.99 1.24 1.55 1.85 2.04 2.23 2.41 2.41 2.31 2.24 2.31 2.28
0.53 0.45 0.45 0.47 0.40 0.43 0.51 0.52 0.54 0.59 0.67 0.80 0.52 0.69 0.89 0.79 0.76 0.72 0.66 0.62 0.52 0.43 0.46 0.48 0.51 0.50 0.49 0.53 0.63 0.76 0.85 1.00 1.13 1.22 1.33 1.47 1.68 1.97 2.13 2.26 2.25 2.24 2.24 2.13
0.52 0.44 0.33 0.31 0.45 0.46 0.51 0.77 1.02 1.00 0.98 0.85 0.42 0.61 0.81 0.66 0.58 0.59 0.58 0.58 0.56 0.52 0.56 0.64 0.71 0.67 0.63 0.66 0.79 0.90 0.98 1.03 1.08 1.05 1.06 1.17 1.34 1.57 1.72 1.83 2.00 2.06 2.11 2.08
0.53 0.49 0.34 0.28 0.35 0.49 0.49 0.65 1.04 1.13 0.97 0.79 0.63 0.84 0.87 0.60 0.51 0.51 0.53 0.52 0.53 0.60 0.68 0.83 0.93 0.94 0.87 0.87 0.91 0.92 0.98 0.93 0.93 0.95 0.97 1.04 1.10 1.25 1.36 1.44 1.59 1.70 1.70 1.69
0.51 0.45 0.24 0.21 0.21 0.31 0.45 0.42 0.44 0.66 0.67 0.77 0.77 0.87 0.81 0.55 0.46 0.49 0.53 0.55 0.57 0.70 0.82 0.99 1.16 1.19 1.10 1.03 0.97 0.98 1.05 0.99 0.91 0.94 1.02 1.04 1.06 1.05 1.05 1.11 1.11 1.19 1.26 1.28
0.41 0.43 0.27 0.20 0.22 0.24 0.31 0.35 0.45 0.74 0.99 1.06 0.90 0.94 0.99 0.71 0.54 0.55 0.63 0.74 0.84 0.98 1.03 1.17 1.29 1.29 1.25 1.27 1.22 1.07 1.07 1.10 1.02 1.10 1.12 1.04 1.01 0.96 0.96 1.00 1.02 1.03 1.11 1.19
0.36 0.46 0.34 0.25 0.29 0.30 0.29 0.36 0.52 0.77 0.86 1.17 1.34 1.30 0.91 0.72 0.69 0.69 0.76 1.04 1.13 1.19 1.25 1.27 1.35 1.34 1.23 1.21 1.18 1.17 1.13 1.12 1.13 1.14 1.14 1.01 0.99 1.01 1.00 0.98 0.99 1.05 1.12 1.22
0.40 0.52 0.44 0.27 0.24 0.28 0.40 0.53 0.71 1.11 1.10 1.03 1.41 1.47 0.94 0.77 0.80 0.81 0.82 0.88 0.95 1.16 1.24 1.24 1.32 1.27 1.15 1.12 1.02 1.07 1.14 1.14 1.21 1.23 1.14 1.05 1.09 1.11 1.13 1.09 1.04 1.07 1.10 1.09
0.52 0.69 0.71 0.55 0.52 0.49 0.53 0.61 0.75 0.96 1.16 1.20 1.36 1.37 0.96 0.73 0.72 0.78 0.85 0.84 0.90 1.00 1.01 0.96 1.01 1.09 1.06 1.04 0.97 1.05 1.13 1.18 1.20 1.25 1.25 1.12 1.02 1.04 1.06 1.06 0.99 0.96 0.97 1.00
0.50 0.66 0.79 0.80 0.72 0.63 0.57 0.51 0.57 0.83 1.14 1.17 1.20 1.13 0.86 0.72 0.70 0.73 0.77 0.82 0.80 0.79 0.79 0.73 0.71 0.79 0.80 0.83 0.90 0.97 1.11 1.27 1.29 1.30 1.26 1.20 1.13 1.15 1.07 0.99 0.95 0.92 0.88 0.82
0.43 0.44 0.39 0.33 0.31 0.35 0.42 0.44 0.53 0.68 0.85 1.09 0.98 0.77 0.65 0.63 0.59 0.61 0.67 0.60 0.56 0.56 0.57 0.58 0.56 0.58 0.60 0.64 0.73 0.80 0.91 1.12 1.25 1.35 1.34 1.25 1.18 1.09 1.01 0.92 0.85 0.85 0.76 0.71
0.46 0.40 0.25 0.19 0.20 0.25 0.35 0.47 0.61 0.68 0.74 0.76 0.67 0.63 0.49 0.46 0.42 0.42 0.48 0.48 0.49 0.45 0.40 0.41 0.45 0.47 0.52 0.56 0.64 0.65 0.75 0.92 1.05 1.13 1.17 1.23 1.20 1.04 0.92 0.82 0.75 0.72 0.70 0.70
0.33 0.33 0.29 0.22 0.18 0.29 0.50 0.58 0.66 0.66 0.61 0.53 0.50 0.45 0.32 0.29 0.26 0.26 0.32 0.36 0.42 0.41 0.36 0.34 0.35 0.39 0.47 0.55 0.58 0.63 0.74 0.87 0.91 0.98 1.01 1.05 1.05 0.90 0.83 0.73 0.66 0.64 0.64 0.67
0.31 0.35 0.42 0.32 0.27 0.51 0.70 0.56 0.51 0.57 0.47 0.33 0.30 0.29 0.26 0.21 0.18 0.17 0.17 0.20 0.23 0.26 0.27 0.32 0.30 0.31 0.35 0.42 0.53 0.67 0.72 0.73 0.74 0.81 0.84 0.83 0.84 0.80 0.74 0.63 0.60 0.61 0.64 0.68
0.31 0.42 0.53 0.48 0.45 0.56 0.62 0.43 0.42 0.50 0.48 0.27 0.21 0.20 0.17 0.16 0.14 0.12 0.12 0.13 0.14 0.15 0.18 0.23 0.23 0.23 0.25 0.27 0.30 0.37 0.43 0.48 0.51 0.62 0.69 0.72 0.74 0.71 0.67 0.61 0.68 0.72 0.70 0.70
0.43 0.51 0.59 0.56 0.64 0.71 0.48 0.22 0.21 0.37 0.56 0.25 0.14 0.13 0.11 0.12 0.15 0.14 0.12 0.13 0.12 0.10 0.11 0.14 0.18 0.18 0.17 0.18 0.19 0.23 0.29 0.34 0.38 0.45 0.51 0.58 0.65 0.68 0.71 0.82 0.89 0.90 0.85 0.76
0.36 0.44 0.55 0.61 0.81 0.75 0.44 0.21 0.22 0.43 0.58 0.29 0.14 0.11 0.13 0.14 0.14 0.12 0.13 0.13 0.11 0.10 0.09 0.11 0.13 0.14 0.16 0.17 0.16 0.20 0.25 0.27 0.29 0.29 0.35 0.46 0.62 0.71 0.80 0.94 0.96 0.93 0.87 0.76
0.39 0.51 0.62 0.75 0.97 0.99 0.50 0.29 0.35 0.35 0.23 0.18 0.13 0.11 0.11 0.11 0.12 0.13 0.13 0.12 0.12 0.12 0.10 0.09 0.10 0.11 0.14 0.17 0.16 0.18 0.26 0.28 0.32 0.33 0.34 0.40 0.52 0.67 0.83 0.95 0.93 0.92 0.91 0.83
0.34 0.60 0.84 0.83 0.83 0.65 0.39 0.29 0.23 0.17 0.17 0.11 0.10 0.11 0.12 0.11 0.11 0.11 0.11 0.11 0.11 0.12 0.11 0.10 0.11 0.11 0.12 0.14 0.17 0.19 0.22 0.26 0.28 0.31 0.29 0.30 0.38 0.53 0.71 0.80 0.82 0.83 0.85 0.81
0.20 0.28 0.45 0.43 0.32 0.25 0.21 0.19 0.14 0.11 0.11 0.08 0.07 0.07 0.12 0.14 0.14 0.11 0.10 0.10 0.11 0.10 0.09 0.09 0.11 0.12 0.12 0.14 0.17 0.21 0.25 0.25 0.25 0.27 0.28 0.28 0.28 0.33 0.43 0.52 0.58 0.66 0.70 0.70
0.19 0.24 0.34 0.33 0.20 0.15 0.15 0.15 0.12 0.10 0.10 0.08 0.08 0.07 0.09 0.12 0.13 0.10 0.11 0.09 0.10 0.10 0.11 0.10 0.12 0.14 0.14 0.16 0.17 0.19 0.23 0.26 0.26 0.27 0.29 0.30 0.33 0.36 0.39 0.42 0.45 0.50 0.53 0.62
0.13 0.20 0.28 0.30 0.21 0.16 0.13 0.13 0.14 0.12 0.10 0.10 0.10 0.11 0.12 0.13 0.14 0.12 0.11 0.10 0.10 0.11 0.12 0.14 0.15 0.17 0.16 0.17 0.18 0.17 0.19 0.21 0.23 0.25 0.26 0.25 0.28 0.32 0.34 0.38 0.41 0.45 0.45 0.53

GEFSCGP_prec_meanprecacc_282.txt.gz
Total_Precipitation_Accumulation
0.57 0.90 1.18 1.04 1.06 1.12 0.95 0.98 1.04 1.02 0.85 0.96 1.05 1.01 1.08 1.07 1.03 0.88 0.79 0.72 0.72 0.70 0.70 0.67 0.64 0.70 0.69 0.62 0.60 0.66 0.80 0.94 1.08 1.21 1.33 1.55 1.70 1.80 1.80 1.79 1.83 1.73 1.52 1.58
0.77 0.89 0.70 0.67 0.74 0.85 0.88 0.93 0.98 0.91 0.76 0.85 0.91 0.94 0.98 0.93 0.86 0.71 0.65 0.61 0.57 0.55 0.58 0.57 0.49 0.49 0.52 0.54 0.57 0.63 0.76 0.98 1.18 1.38 1.55 1.72 2.04 2.19 2.18 2.24 2.15 2.07 1.94 1.94
0.72 0.65 0.51 0.60 0.71 0.80 0.82 0.81 0.85 0.84 0.87 0.87 0.87 1.01 1.03 0.97 0.81 0.65 0.56 0.50 0.47 0.43 0.46 0.48 0.42 0.39 0.38 0.42 0.49 0.58 0.69 0.89 1.17 1.46 1.68 1.87 2.10 2.35 2.46 2.35 2.30 2.29 2.33 2.37
0.64 0.52 0.49 0.59 0.63 0.70 0.91 0.59 0.57 0.63 0.81 1.03 0.86 1.19 1.03 0.94 0.83 0.68 0.59 0.51 0.46 0.45 0.45 0.43 0.40 0.41 0.39 0.43 0.49 0.60 0.69 0.82 1.01 1.26 1.57 1.83 2.09 2.40 2.46 2.41 2.39 2.42 2.50 2.54
0.59 0.52 0.53 0.62 0.55 0.56 0.70 0.45 0.48 0.60 0.66 0.73 0.66 0.91 0.95 0.78 0.85 0.76 0.66 0.58 0.50 0.46 0.47 0.43 0.42 0.42 0.45 0.48 0.54 0.68 0.79 0.87 1.02 1.27 1.57 1.86 2.06 2.24 2.42 2.42 2.32 2.25 2.33 2.30
0.54 0.46 0.46 0.48 0.42 0.45 0.53 0.53 0.54 0.59 0.69 0.82 0.52 0.70 0.90 0.81 0.77 0.73 0.67 0.62 0.52 0.43 0.47 0.49 0.53 0.52 0.51 0.56 0.66 0.80 0.91 1.05 1.17 1.26 1.36 1.49 1.69 1.98 2.13 2.27 2.26 2.24 2.25 2.14
0.53 0.46 0.35 0.33 0.48 0.49 0.53 0.78 1.04 1.01 0.99 0.86 0.43 0.61 0.83 0.67 0.58 0.59 0.59 0.59 0.56 0.53 0.57 0.65 0.72 0.68 0.65 0.68 0.82 0.94 1.03 1.07 1.11 1.08 1.09 1.19 1.35 1.58 1.73 1.85 2.01 2.07 2.11 2.09
0.54 0.50 0.36 0.30 0.37 0.51 0.51 0.66 1.06 1.15 0.98 0.80 0.64 0.85 0.88 0.60 0.51 0.52 0.54 0.53 0.53 0.60 0.69 0.84 0.95 0.95 0.89 0.88 0.92 0.94 1.01 0.96 0.95 0.97 1.00 1.06 1.12 1.26 1.37 1.46 1.59 1.71 1.70 1.70
0.52 0.46 0.25 0.22 0.22 0.32 0.46 0.43 0.45 0.67 0.67 0.79 0.78 0.88 0.82 0.56 0.48 0.50 0.54 0.55 0.58 0.71 0.83 1.00 1.17 1.20 1.12 1.05 0.99 1.01 1.08 1.02 0.94 0.96 1.04 1.06 1.08 1.07 1.06 1.13 1.12 1.19 1.26 1.28
0.41 0.43 0.28 0.21 0.23 0.25 0.32 0.36 0.47 0.76 1.01 1.08 0.91 0.95 0.99 0.72 0.56 0.56 0.64 0.75 0.85 0.98 1.03 1.18 1.30 1.30 1.26 1.29 1.24 1.09 1.09 1.13 1.05 1.13 1.15 1.07 1.02 0.97 0.97 1.02 1.03 1.04 1.11 1.19
0.36 0.46 0.35 0.26 0.29 0.31 0.30 0.36 0.53 0.79 0.87 1.18 1.36 1.31 0.92 0.72 0.70 0.69 0.77 1.05 1.13 1.19 1.26 1.28 1.36 1.34 1.24 1.22 1.19 1.18 1.14 1.14 1.15 1.17 1.18 1.04 1.01 1.03 1.02 1.00 1.02 1.07 1.14 1.23
0.40 0.53 0.45 0.27 0.24 0.28 0.41 0.53 0.71 1.12 1.11 1.04 1.42 1.48 0.94 0.77 0.80 0.81 0.83 0.89 0.96 1.16 1.25 1.24 1.32 1.27 1.16 1.14 1.04 1.09 1.16 1.16 1.24 1.26 1.17 1.09 1.12 1.14 1.15 1.11 1.07 1.09 1.12 1.11
0.52 0.69 0.72 0.55 0.53 0.49 0.53 0.61 0.75 0.96 1.17 1.21 1.37 1.38 0.97 0.74 0.73 0.78 0.85 0.85 0.90 1.00 1.02 0.96 1.01 1.09 1.06 1.05 0.98 1.07 1.14 1.20 1.22 1.27 1.27 1.15 1.06 1.08 1.11 1.10 1.03 0.99 1.00 1.03
0.50 0.66 0.79 0.80 0.72 0.64 0.57 0.51 0.58 0.84 1.15 1.18 1.21 1.14 0.86 0.72 0.70 0.73 0.77 0.82 0.81 0.79 0.79 0.73 0.72 0.79 0.81 0.84 0.91 0.99 1.12 1.28 1.30 1.31 1.27 1.22 1.14 1.17 1.10 1.02 0.98 0.96 0.91 0.86
0.43 0.44 0.39 0.33 0.31 0.35 0.42 0.44 0.54 0.69 0.86 1.10 0.99 0.77 0.65 0.63 0.59 0.61 0.67 0.60 0.57 0.56 0.57 0.59 0.57 0.59 0.61 0.65 0.74 0.81 0.92 1.13 1.26 1.36 1.35 1.26 1.20 1.11 1.03 0.94 0.87 0.88 0.79 0.77
0.46 0.40 0.25 0.19 0.20 0.25 0.35 0.47 0.61 0.68 0.75 0.77 0.67 0.64 0.49 0.47 0.42 0.42 0.48 0.49 0.49 0.45 0.40 0.41 0.46 0.48 0.53 0.57 0.64 0.66 0.76 0.94 1.07 1.14 1.18 1.25 1.23 1.06 0.95 0.84 0.77 0.74 0.72 0.71
0.33 0.33 0.29 0.22 0.18 0.29 0.50 0.59 0.66 0.66 0.61 0.53 0.51 0.45 0.33 0.30 0.27 0.27 0.32 0.36 0.42 0.41 0.36 0.34 0.35 0.39 0.47 0.56 0.59 0.64 0.75 0.88 0.93 0.99 1.03 1.08 1.08 0.93 0.86 0.76 0.67 0.66 0.66 0.69
0.31 0.35 0.42 0.32 0.28 0.51 0.70 0.57 0.52 0.58 0.47 0.33 0.31 0.30 0.27 0.22 0.19 0.17 0.17 0.20 0.23 0.26 0.27 0.32 0.30 0.31 0.35 0.43 0.53 0.67 0.72 0.74 0.76 0.83 0.87 0.87 0.87 0.81 0.76 0.65 0.62 0.63 0.67 0.71
0.31 0.42 0.53 0.48 0.46 0.56 0.63 0.43 0.42 0.51 0.49 0.28 0.22 0.21 0.17 0.16 0.15 0.13 0.12 0.13 0.14 0.15 0.18 0.23 0.23 0.23 0.25 0.27 0.31 0.37 0.44 0.49 0.52 0.63 0.71 0.74 0.75 0.73 0.68 0.63 0.70 0.74 0.73 0.72
0.43 0.51 0.59 0.57 0.65 0.72 0.49 0.22 0.22 0.37 0.57 0.26 0.15 0.14 0.12 0.13 0.17 0.15 0.13 0.13 0.12 0.10 0.11 0.14 0.18 0.18 0.17 0.18 0.19 0.24 0.30 0.36 0.40 0.46 0.53 0.60 0.67 0.69 0.73 0.84 0.92 0.93 0.88 0.80
0.36 0.45 0.55 0.61 0.81 0.75 0.44 0.21 0.23 0.44 0.59 0.31 0.15 0.13 0.15 0.16 0.15 0.13 0.14 0.13 0.12 0.10 0.09 0.11 0.13 0.14 0.16 0.17 0.17 0.20 0.25 0.27 0.30 0.30 0.37 0.48 0.64 0.73 0.84 0.99 1.02 0.97 0.91 0.80
0.39 0.52 0.63 0.76 0.98 0.99 0.50 0.29 0.36 0.35 0.25 0.20 0.13 0.12 0.13 0.13 0.13 0.14 0.14 0.12 0.12 0.13 0.11 0.10 0.10 0.11 0.15 0.17 0.16 0.18 0.26 0.28 0.33 0.34 0.36 0.41 0.54 0.69 0.86 1.00 0.99 0.97 0.96 0.88
0.35 0.61 0.85 0.84 0.84 0.65 0.40 0.29 0.23 0.18 0.19 0.13 0.11 0.12 0.13 0.12 0.13 0.12 0.13 0.13 0.12 0.12 0.12 0.12 0.11 0.11 0.12 0.14 0.18 0.19 0.23 0.27 0.29 0.33 0.30 0.31 0.39 0.54 0.72 0.82 0.85 0.87 0.89 0.85
0.21 0.29 0.45 0.44 0.33 0.25 0.22 0.19 0.14 0.11 0.12 0.10 0.08 0.09 0.13 0.17 0.16 0.12 0.12 0.12 0.12 0.12 0.10 0.10 0.12 0.12 0.13 0.15 0.18 0.22 0.26 0.27 0.26 0.28 0.29 0.28 0.29 0.34 0.44 0.53 0.60 0.68 0.72 0.71
0.20 0.25 0.35 0.34 0.20 0.15 0.15 0.15 0.12 0.10 0.10 0.09 0.08 0.08 0.09 0.13 0.14 0.10 0.11 0.09 0.10 0.11 0.11 0.11 0.12 0.15 0.15 0.16 0.17 0.20 0.24 0.27 0.27 0.28 0.30 0.31 0.33 0.36 0.39 0.42 0.46 0.51 0.54 0.64
0.13 0.20 0.29 0.31 0.21 0.16 0.13 0.14 0.14 0.12 0.11 0.10 0.10 0.11 0.12 0.14 0.14 0.13 0.11 0.11 0.10 0.11 0.13 0.15 0.16 0.17 0.17 0.17 0.18 0.18 0.20 0.22 0.24 0.26 0.27 0.27 0.29 0.33 0.34 0.38 0.42 0.46 0.47 0.55

GEFSCGP_prec_meanprecacc_288.txt.gz
Total_Precipitation_Accumulation
0.59 0.92 1.22 1.07 1.07 1.13 0.97 1.00 1.06 1.04 0.88 0.99 1.08 1.03 1.09 1.07 1.04 0.90 0.80 0.74 0.74 0.71 0.71 0.68 0.65 0.72 0.72 0.65 0.63 0.70 0.84 0.97 1.09 1.23 1.38 1.59 1.73 1.82 1.83 1.81 1.84 1.75 1.54 1.60
0.82 0.93 0.73 0.68 0.75 0.85 0.89 0.95 1.00 0.93 0.77 0.87 0.93 0.95 0.99 0.94 0.88 0.72 0.66 0.63 0.59 0.55 0.58 0.57 0.49 0.51 0.54 0.56 0.60 0.66 0.81 1.02 1.20 1.41 1.58 1.74 2.06 2.21 2.21 2.26 2.17 2.09 1.95 1.95
0.79 0.70 0.54 0.62 0.73 0.82 0.83 0.83 0.87 0.85 0.88 0.88 0.88 1.03 1.04 0.99 0.84 0.67 0.57 0.51 0.48 0.44 0.47 0.49 0.43 0.40 0.39 0.44 0.51 0.61 0.72 0.93 1.21 1.49 1.71 1.88 2.12 2.38 2.49 2.37 2.33 2.31 2.35 2.38
0.66 0.55 0.52 0.62 0.66 0.73 0.93 0.60 0.57 0.63 0.83 1.07 0.88 1.23 1.06 0.96 0.86 0.69 0.59 0.52 0.48 0.46 0.46 0.44 0.42 0.42 0.40 0.44 0.52 0.63 0.74 0.88 1.06 1.30 1.60 1.86 2.13 2.44 2.48 2.42 2.40 2.43 2.50 2.55
0.60 0.53 0.55 0.65 0.58 0.59 0.72 0.46 0.48 0.61 0.68 0.76 0.68 0.95 0.98 0.80 0.87 0.78 0.69 0.60 0.50 0.48 0.48 0.44 0.43 0.44 0.46 0.49 0.55 0.70 0.82 0.94 1.10 1.34 1.62 1.92 2.10 2.28 2.45 2.45 2.33 2.26 2.34 2.31
0.54 0.46 0.47 0.49 0.44 0.47 0.54 0.54 0.55 0.60 0.71 0.86 0.54 0.72 0.94 0.83 0.79 0.76 0.72 0.68 0.54 0.44 0.48 0.51 0.54 0.53 0.52 0.57 0.67 0.82 0.95 1.09 1.22 1.32 1.42 1.56 1.75 2.02 2.17 2.31 2.29 2.26 2.27 2.16
0.54 0.46 0.35 0.34 0.50 0.51 0.54 0.82 1.09 1.06 1.05 0.90 0.44 0.63 0.85 0.68 0.59 0.59 0.60 0.61 0.57 0.53 0.58 0.66 0.73 0.70 0.66 0.69 0.83 0.96 1.06 1.12 1.16 1.13 1.16 1.25 1.40 1.63 1.77 1.89 2.06 2.11 2.14 2.12
0.56 0.52 0.37 0.31 0.41 0.54 0.53 0.70 1.13 1.21 1.04 0.84 0.66 0.87 0.90 0.62 0.52 0.52 0.55 0.53 0.54 0.61 0.69 0.84 0.96 0.98 0.91 0.90 0.94 0.96 1.04 1.00 0.99 1.02 1.05 1.12 1.17 1.32 1.42 1.49 1.62 1.74 1.73 1.72
0.53 0.48 0.27 0.24 0.24 0.35 0.48 0.45 0.48 0.71 0.70 0.82 0.80 0.90 0.84 0.57 0.48 0.50 0.54 0.55 0.58 0.71 0.83 1.00 1.19 1.23 1.14 1.07 1.02 1.04 1.11 1.06 0.98 1.00 1.08 1.10 1.11 1.10 1.09 1.15 1.14 1.21 1.28 1.30
0.42 0.45 0.30 0.22 0.25 0.27 0.33 0.37 0.48 0.80 1.07 1.12 0.93 0.97 1.02 0.73 0.56 0.56 0.64 0.76 0.85 0.99 1.04 1.19 1.32 1.33 1.28 1.31 1.27 1.12 1.11 1.16 1.08 1.17 1.19 1.11 1.05 1.00 0.99 1.04 1.06 1.05 1.13 1.22
0.36 0.47 0.36 0.27 0.30 0.32 0.30 0.37 0.54 0.81 0.90 1.22 1.39 1.34 0.93 0.74 0.70 0.69 0.77 1.05 1.14 1.20 1.26 1.30 1.38 1.37 1.26 1.24 1.22 1.21 1.16 1.15 1.17 1.19 1.21 1.08 1.06 1.08 1.06 1.02 1.04 1.10 1.16 1.25
0.40 0.53 0.46 0.27 0.24 0.28 0.41 0.54 0.72 1.15 1.13 1.06 1.45 1.51 0.94 0.77 0.80 0.81 0.83 0.89 0.97 1.17 1.26 1.25 1.34 1.30 1.18 1.16 1.06 1.11 1.18 1.18 1.26 1.28 1.20 1.12 1.16 1.18 1.20 1.16 1.11 1.12 1.15 1.14
0.52 0.69 0.73 0.56 0.53 0.49 0.53 0.61 0.75 0.97 1.18 1.22 1.40 1.40 0.97 0.74 0.73 0.78 0.85 0.85 0.91 1.01 1.02 0.97 1.03 1.12 1.09 1.07 0.99 1.08 1.15 1.21 1.23 1.29 1.29 1.18 1.09 1.12 1.15 1.16 1.08 1.04 1.04 1.07
0.51 0.66 0.79 0.81 0.72 0.64 0.57 0.51 0.58 0.84 1.15 1.18 1.22 1.14 0.86 0.73 0.70 0.73 0.78 0.82 0.81 0.79 0.79 0.74 0.73 0.81 0.83 0.86 0.92 0.99 1.13 1.29 1.31 1.32 1.29 1.25 1.19 1.22 1.15 1.07 1.02 0.99 0.95 0.89
0.44 0.44 0.39 0.33 0.31 0.35 0.42 0.44 0.54 0.69 0.86 1.11 0.99 0.78 0.66 0.64 0.60 0.62 0.68 0.62 0.57 0.56 0.58 0.59 0.58 0.60 0.62 0.66 0.75 0.82 0.93 1.14 1.27 1.37 1.37 1.29 1.23 1.16 1.11 1.02 0.92 0.92 0.83 0.80
0.46 0.40 0.25 0.19 0.20 0.25 0.35 0.47 0.61 0.68 0.75 0.77 0.68 0.64 0.50 0.47 0.42 0.43 0.49 0.50 0.50 0.45 0.40 0.41 0.46 0.48 0.53 0.57 0.65 0.66 0.78 0.95 1.08 1.15 1.20 1.28 1.26 1.10 1.00 0.91 0.82 0.78 0.75 0.74
0.33 0.33 0.29 0.22 0.18 0.29 0.51 0.59 0.66 0.66 0.61 0.54 0.51 0.45 0.33 0.30 0.27 0.27 0.33 0.37 0.43 0.42 0.36 0.35 0.36 0.40 0.47 0.56 0.59 0.64 0.75 0.89 0.94 1.01 1.04 1.10 1.11 0.97 0.90 0.80 0.72 0.70 0.69 0.71
0.31 0.35 0.42 0.32 0.28 0.52 0.70 0.57 0.52 0.58 0.48 0.33 0.31 0.30 0.27 0.23 0.20 0.18 0.18 0.21 0.24 0.27 0.27 0.32 0.30 0.31 0.35 0.43 0.54 0.67 0.72 0.74 0.76 0.84 0.88 0.88 0.89 0.85 0.80 0.70 0.68 0.69 0.71 0.74
0.31 0.42 0.54 0.49 0.46 0.57 0.63 0.43 0.42 0.51 0.49 0.28 0.22 0.21 0.18 0.17 0.16 0.13 0.13 0.14 0.14 0.15 0.19 0.23 0.23 0.23 0.25 0.28 0.31 0.37 0.44 0.49 0.53 0.64 0.71 0.75 0.77 0.76 0.72 0.68 0.76 0.80 0.78 0.77
0.43 0.51 0.59 0.58 0.66 0.73 0.50 0.22 0.22 0.37 0.58 0.27 0.16 0.14 0.12 0.13 0.17 0.15 0.14 0.14 0.12 0.11 0.11 0.15 0.18 0.18 0.17 0.18 0.20 0.24 0.30 0.36 0.40 0.47 0.54 0.61 0.68 0.70 0.75 0.88 0.98 1.01 0.95 0.85
0.36 0.45 0.56 0.62 0.82 0.77 0.45 0.22 0.23 0.45 0.60 0.31 0.16 0.14 0.15 0.16 0.16 0.13 0.14 0.15 0.13 0.10 0.09 0.11 0.13 0.14 0.16 0.17 0.17 0.20 0.26 0.27 0.31 0.31 0.38 0.49 0.64 0.74 0.85 1.01 1.05 1.03 0.97 0.85
0.40 0.53 0.64 0.77 0.99 1.01 0.51 0.30 0.37 0.37 0.25 0.20 0.14 0.13 0.13 0.14 0.14 0.15 0.16 0.14 0.14 0.14 0.11 0.10 0.10 0.11 0.15 0.17 0.16 0.18 0.27 0.29 0.34 0.35 0.37 0.43 0.54 0.69 0.87 1.01 1.02 1.03 1.02 0.93
0.35 0.61 0.86 0.85 0.85 0.66 0.40 0.30 0.24 0.20 0.20 0.14 0.13 0.14 0.14 0.14 0.14 0.15 0.16 0.15 0.14 0.14 0.13 0.13 0.12 0.12 0.13 0.14 0.18 0.20 0.24 0.28 0.31 0.34 0.31 0.32 0.40 0.54 0.73 0.83 0.87 0.92 0.97 0.93
0.21 0.29 0.46 0.45 0.33 0.25 0.22 0.20 0.16 0.12 0.13 0.10 0.09 0.11 0.15 0.19 0.19 0.15 0.15 0.16 0.16 0.14 0.13 0.12 0.13 0.13 0.13 0.15 0.18 0.22 0.27 0.28 0.28 0.29 0.30 0.29 0.30 0.34 0.44 0.53 0.61 0.70 0.76 0.78
0.20 0.25 0.35 0.34 0.21 0.16 0.16 0.17 0.14 0.11 0.10 0.09 0.09 0.09 0.10 0.15 0.16 0.12 0.13 0.12 0.13 0.13 0.14 0.13 0.14 0.16 0.16 0.17 0.18 0.20 0.24 0.28 0.28 0.29 0.31 0.31 0.33 0.37 0.40 0.43 0.47 0.52 0.56 0.67
0.13 0.21 0.30 0.31 0.21 0.17 0.14 0.14 0.15 0.12 0.11 0.10 0.10 0.12 0.13 0.14 0.16 0.15 0.13 0.13 0.11 0.12 0.14 0.16 0.18 0.19 0.17 0.18 0.19 0.19 0.20 0.23 0.25 0.27 0.27 0.27 0.29 0.33 0.35 0.38 0.42 0.47 0.48 0.56